Lapse_Rate
6.2 5.8 5.7 6.0 6.0 6.0 6.2 6.2 6.3 6.4 6.4 6.3 6.1 6.1 6.5 6.6 6.5 6.2 5.8 5.5 5.7 5.9 5.9 6.1 6.1 6.1 6.1 6.2 6.1 6.1 6.2 6.2 6.1 6.0 6.1 6.1 5.9 5.7 5.8 5.7 5.6 5.8 5.8 5.8
6.1 5.8 6.0 6.1 6.1 5.9 6.1 6.1 5.9 6.4 6.2 6.1 6.2 6.5 6.8 6.8 6.6 6.3 6.0 5.7 5.6 6.0 6.1 6.1 6.0 6.0 6.1 6.1 6.1 6.1 6.2 6.2 6.2 6.2 6.1 6.0 5.9 5.9 5.8 5.7 5.6 5.6 5.7 5.7
6.0 6.1 6.1 6.1 6.0 5.9 6.0 6.0 6.1 5.9 6.0 6.2 6.4 6.7 6.7 6.8 6.7 6.2 5.9 5.3 5.4 6.0 6.2 6.1 6.1 6.1 6.0 6.0 6.0 6.1 6.2 6.2 6.1 6.1 6.0 5.9 5.8 5.7 5.7 5.7 5.9 5.9 5.8 5.7
6.1 6.1 6.1 6.2 6.0 6.0 5.8 6.0 5.9 5.9 5.7 6.1 6.1 7.5 6.7 6.9 6.7 6.2 6.0 5.3 5.4 5.9 6.3 6.3 6.2 6.1 6.1 6.0 6.1 6.1 6.2 6.2 6.2 6.2 6.1 6.0 6.0 6.0 6.0 6.0 5.9 5.8 5.6 5.5
6.2 6.2 6.0 5.9 6.0 6.0 6.0 6.0 5.8 5.8 5.7 5.7 6.0 6.1 6.8 6.9 6.7 6.2 6.1 5.5 5.5 5.4 5.8 6.2 6.3 6.1 6.0 6.0 6.0 6.2 6.2 6.2 6.1 6.1 6.1 6.0 5.8 5.7 5.5 5.4 5.4 5.3 5.3 5.2
6.2 6.2 6.0 5.9 5.9 6.0 6.0 6.0 5.9 5.8 5.8 6.6 6.0 5.9 7.1 7.1 6.7 6.3 6.1 5.7 5.4 5.3 5.3 5.4 5.6 5.6 5.6 5.6 5.8 5.8 6.0 5.8 5.7 5.8 5.6 5.6 5.5 5.4 5.4 5.4 5.4 5.4 5.2 5.3
6.2 6.3 6.2 5.8 5.8 5.9 5.9 5.9 6.6 7.0 7.0 7.6 5.9 5.6 7.4 7.2 6.8 6.5 6.1 5.9 5.5 5.3 5.2 5.2 5.2 5.1 5.1 5.3 5.3 5.5 5.7 5.7 5.7 5.6 5.6 5.5 5.4 5.4 5.5 5.5 5.5 5.5 5.4 5.2
6.1 6.4 6.1 6.1 5.9 5.8 5.7 5.7 6.0 6.6 7.5 7.3 6.0 6.0 7.0 7.1 6.8 6.6 6.3 5.9 5.8 5.5 5.5 5.3 5.2 5.1 5.1 5.0 5.2 5.3 5.5 5.5 5.5 5.5 5.5 5.3 5.4 5.4 5.4 5.3 5.3 5.2 5.2 5.2
6.4 6.2 6.3 6.0 5.9 5.8 5.5 5.6 5.7 5.5 5.3 5.7 6.5 6.9 7.1 7.1 7.0 6.7 6.6 6.2 5.9 5.7 5.6 5.4 5.2 5.1 5.0 4.9 5.0 5.1 5.2 5.1 5.1 5.3 5.4 5.4 5.4 5.4 5.3 5.3 5.1 5.0 5.1 5.1
6.3 6.2 6.2 6.1 5.8 5.8 5.7 5.6 5.7 5.5 5.6 6.6 7.4 6.5 7.3 7.2 7.0 6.9 6.8 6.6 6.3 5.9 5.7 5.5 5.3 5.1 4.9 4.9 4.9 4.8 4.9 5.1 5.1 5.2 5.2 5.2 5.3 5.3 5.3 5.2 5.1 5.1 5.1 5.0
6.2 6.2 6.1 6.0 6.0 5.9 5.8 5.5 5.6 5.6 5.4 6.4 6.9 7.9 7.5 7.2 7.0 6.8 6.8 6.8 6.6 6.2 5.9 5.5 5.3 5.2 5.1 4.9 4.8 4.8 4.9 5.0 5.1 5.2 5.2 5.2 5.2 5.1 5.1 5.1 5.1 5.0 5.0 4.9
6.4 5.8 5.9 6.2 6.2 6.0 5.8 5.7 5.4 5.5 5.2 5.3 5.0 6.2 7.4 7.3 7.0 6.9 6.8 6.8 6.7 6.5 6.1 5.8 5.5 5.3 5.2 5.1 5.0 4.9 4.9 5.0 5.0 5.1 5.2 5.2 5.2 5.1 5.1 5.0 5.0 5.0 5.0 5.0
6.4 6.2 6.1 6.3 6.0 6.0 6.0 6.2 6.1 5.4 5.4 5.4 5.5 7.0 7.0 7.1 7.0 6.7 6.8 6.7 6.8 6.8 6.6 6.1 5.8 5.5 5.3 5.1 5.0 5.0 5.0 5.0 5.0 5.1 5.2 5.0 5.0 5.0 4.9 4.8 4.8 4.8 4.8 4.9
6.5 6.5 6.6 6.7 6.4 6.2 6.1 6.0 5.9 5.6 5.0 5.7 6.0 6.6 6.7 6.7 6.6 6.6 6.6 6.8 6.9 6.8 6.9 6.6 6.3 5.8 5.5 5.5 5.3 5.3 5.2 5.1 5.1 5.1 5.1 5.0 4.9 4.8 4.8 4.8 4.7 4.7 4.7 4.6
6.4 6.4 6.6 6.7 6.4 6.3 6.2 6.3 6.2 6.0 6.3 5.5 6.6 6.3 7.6 6.6 6.5 6.6 6.7 6.9 7.0 7.0 6.9 6.8 6.5 6.1 5.8 5.6 5.5 5.5 5.4 5.3 5.2 5.1 4.9 4.8 4.8 4.7 4.6 4.7 4.7 4.7 4.7 4.6
6.6 6.3 6.6 6.5 6.6 6.4 6.2 6.3 6.6 6.6 6.5 6.2 6.6 6.8 7.1 6.9 6.9 7.3 7.1 6.9 7.0 7.1 7.0 6.9 6.8 6.5 6.1 5.8 5.5 5.5 5.5 5.3 5.1 5.0 4.8 4.7 4.7 4.7 4.6 4.6 4.6 4.6 4.6 4.6
6.5 6.5 6.4 6.2 6.4 6.2 5.8 7.0 7.1 7.0 6.9 6.7 6.6 7.1 7.1 7.1 6.7 6.9 7.0 6.8 6.8 7.0 7.0 6.9 6.7 6.5 6.2 5.9 5.7 5.5 5.5 5.4 5.2 5.0 4.8 4.7 4.7 4.7 4.6 4.6 4.5 4.5 4.6 4.6
6.3 6.4 6.4 6.2 6.2 6.2 6.8 7.2 7.1 7.1 7.4 7.0 7.1 7.1 7.1 7.3 7.0 6.9 6.9 6.8 6.7 6.8 6.9 6.8 6.7 6.6 6.5 6.2 6.0 5.8 5.6 5.4 5.3 5.2 5.0 4.9 4.8 4.8 4.7 4.7 4.6 4.6 4.6 4.6
6.2 6.3 6.3 6.4 6.4 6.5 6.8 7.2 7.3 7.1 7.6 7.1 6.9 7.0 7.1 7.2 7.3 7.1 6.8 6.8 6.7 6.8 6.8 6.8 6.8 6.7 6.7 6.5 6.2 6.1 5.8 5.6 5.5 5.3 5.2 5.0 4.9 4.9 4.8 4.8 4.8 4.7 4.7 4.7
6.1 6.2 5.9 6.2 6.0 6.7 7.1 7.2 7.3 7.4 7.0 7.0 7.0 6.8 6.8 6.7 6.8 6.4 6.8 6.7 6.7 6.7 6.7 6.7 6.6 6.7 6.6 6.3 6.3 6.1 5.9 5.8 5.6 5.5 5.4 5.2 5.1 5.0 4.9 4.9 4.9 4.9 4.8 4.8
5.8 5.7 5.8 5.9 5.8 6.3 7.0 7.4 6.9 6.5 7.0 6.7 6.7 6.6 6.5 6.5 6.3 6.3 6.4 6.5 6.5 6.6 6.6 6.6 6.7 6.5 6.4 6.4 6.2 6.1 5.9 5.7 5.5 5.7 5.4 5.3 5.2 5.1 5.0 4.9 4.9 5.0 4.9 4.8
5.8 6.1 6.3 5.8 5.6 6.0 7.7 7.5 7.1 6.9 6.8 6.6 6.5 6.5 6.5 6.5 6.3 6.4 6.3 6.3 6.4 6.5 6.5 6.5 6.5 6.5 6.5 6.4 6.2 6.0 5.8 5.4 5.7 5.4 5.3 5.3 5.2 5.1 5.0 5.0 4.9 4.9 4.8 4.7
5.4 5.9 6.0 6.3 6.9 7.6 7.7 7.6 7.6 7.0 6.8 6.8 6.8 6.8 6.8 6.7 6.5 6.4 6.3 6.2 6.3 6.3 6.4 6.4 6.4 6.5 6.5 6.4 6.2 6.0 5.6 5.7 5.7 5.3 5.1 5.1 5.1 5.0 5.0 4.9 4.9 4.9 4.9 4.7
5.5 5.6 5.4 5.8 6.3 6.9 7.3 7.4 7.3 6.6 6.6 6.6 6.7 6.8 6.8 6.9 6.8 6.6 6.4 6.3 6.2 6.2 6.3 6.4 6.4 6.3 6.4 6.2 6.0 5.9 6.1 5.9 5.7 5.4 5.2 5.1 5.0 5.0 4.9 4.9 4.8 4.8 4.8 4.7
5.2 5.3 5.4 5.5 6.0 6.3 6.6 6.7 6.9 6.9 6.7 6.9 7.1 6.9 6.6 6.6 6.5 6.5 6.4 6.2 6.2 6.2 6.1 6.2 6.3 6.2 6.2 6.3 6.1 6.1 6.1 6.1 5.7 5.5 5.3 5.2 5.0 5.0 5.0 4.9 4.8 4.8 4.7 4.7
5.0 5.0 5.2 5.4 5.5 5.6 5.9 6.3 6.6 7.0 6.8 6.8 7.0 7.0 6.5 6.5 6.5 6.4 6.4 6.2 6.0 6.2 6.1 6.2 6.1 6.1 6.1 6.3 6.2 6.2 6.2 6.1 5.9 5.8 5.5 5.3 5.2 5.1 5.0 5.0 4.9 4.9 4.7 4.7
Wind_Speed
2 4 2 2 3 2 1 2 4 1 2 4 7 11 8 11 13 12 11 11 10 9 5 6 5 3 2 3 3 3 4 5 5 5 5 5 5 5 6 9 11 12 13 13
4 1 3 5 3 1 2 4 2 2 2 4 5 11 8 10 13 13 13 13 12 10 9 8 7 5 3 4 3 3 3 3 3 4 4 4 5 4 6 8 10 11 12 12
4 4 5 2 2 3 3 5 2 4 1 4 7 4 4 6 9 8 13 11 11 12 10 8 8 7 5 6 3 4 3 3 3 4 4 3 2 3 4 6 6 10 11 11
1 3 3 3 2 2 5 2 1 3 4 2 2 2 4 6 7 11 13 15 14 13 11 8 8 8 7 5 3 4 4 4 3 3 4 4 3 5 5 5 7 9 10 11
3 3 3 4 2 1 3 0 2 3 4 4 3 4 5 2 6 12 14 16 15 14 13 11 10 8 6 5 4 4 4 4 3 3 3 4 4 4 4 5 7 7 9 10
3 1 2 3 3 2 7 2 3 3 3 4 3 3 5 5 3 5 10 15 15 15 13 10 9 7 6 6 5 5 5 4 3 4 3 4 5 6 5 6 5 6 6 7
2 2 2 0 3 4 3 3 2 3 3 2 2 4 3 6 5 3 7 13 15 15 13 12 11 9 8 8 7 6 6 5 3 4 4 4 5 6 6 6 5 7 6 6
3 3 2 1 2 3 1 3 3 4 3 3 2 4 2 3 2 5 4 6 14 15 13 13 13 11 11 10 10 9 7 5 4 4 4 4 4 4 5 5 6 5 6 6
2 2 2 3 1 2 4 3 2 1 1 4 2 4 5 5 7 8 9 9 15 16 14 14 13 11 11 10 10 9 6 5 4 4 4 4 4 5 5 6 6 5 8 8
3 2 1 2 1 3 1 2 2 2 3 4 3 5 4 8 13 13 13 14 15 15 14 13 13 12 11 11 9 8 7 6 5 4 5 4 5 5 6 6 7 7 8 9
3 2 3 1 5 2 3 3 1 2 2 3 4 2 1 8 11 14 15 15 16 17 15 14 13 12 12 11 10 9 8 7 7 5 5 5 4 5 6 6 6 6 9 9
3 1 3 1 2 2 3 2 4 2 3 1 2 6 2 3 6 8 10 14 15 16 15 15 14 13 12 12 11 10 9 8 7 6 6 5 5 5 6 6 6 7 7 9
7 3 2 3 3 2 5 4 3 2 1 7 3 3 1 3 6 9 10 11 14 15 16 15 14 14 14 13 11 10 10 9 8 7 7 6 5 6 6 6 6 7 7 7
3 3 5 6 2 3 4 6 9 8 4 4 11 21 10 9 13 13 13 13 14 15 17 16 15 15 14 13 12 12 11 10 8 8 8 7 6 5 6 6 6 7 8 8
3 5 5 8 7 5 7 7 13 13 17 10 17 15 18 13 14 16 15 14 15 16 17 18 17 16 15 14 13 12 11 10 9 9 8 7 6 6 6 6 6 7 6 6
3 2 3 4 1 7 7 13 17 19 17 19 21 27 22 20 15 13 14 15 17 18 18 18 18 17 17 16 14 12 12 11 10 9 8 7 6 6 5 6 6 6 6 5
6 5 4 5 2 2 8 13 15 8 10 10 10 14 7 5 8 11 13 16 18 19 19 19 19 18 16 16 15 14 13 11 10 10 8 7 6 6 5 5 5 5 5 5
6 5 3 3 1 8 3 2 3 11 11 18 19 21 12 10 6 9 9 14 16 17 18 18 16 17 16 15 14 12 12 12 11 10 9 8 7 6 5 5 5 5 5 5
3 4 3 3 6 9 12 5 7 6 5 3 16 18 14 8 7 16 13 16 16 16 16 16 16 15 15 15 14 14 13 13 12 12 10 9 8 7 6 6 6 5 6 5
2 1 3 3 4 5 1 3 3 3 6 3 4 9 4 3 3 2 5 7 12 10 11 13 14 15 15 15 14 14 14 14 14 13 11 10 9 8 7 7 7 6 6 7
4 3 8 9 5 7 7 8 5 3 2 3 3 4 3 4 5 4 6 5 5 8 10 11 13 15 15 15 15 15 14 16 13 11 10 10 9 8 8 7 6 6 7 7
9 9 5 4 5 9 6 6 4 5 3 4 5 2 5 12 13 10 8 8 4 8 10 12 12 13 13 15 15 16 16 13 11 10 10 10 9 7 6 8 7 7 7 7
6 8 5 10 5 4 7 1 1 1 4 6 8 7 8 10 10 9 9 7 6 9 10 11 11 12 13 14 15 16 15 13 11 11 10 10 9 8 7 8 8 6 6 6
6 5 4 2 8 13 11 10 7 5 9 9 9 11 9 13 13 12 9 8 7 8 11 11 12 13 14 14 14 14 12 12 12 12 11 9 9 9 8 6 6 6 5 5
2 7 6 7 11 15 14 7 7 5 6 9 11 7 8 8 11 11 11 9 9 9 10 11 13 13 14 14 14 13 12 12 12 11 10 9 8 9 8 7 7 6 6 5
6 7 6 11 3 4 8 3 6 9 10 10 9 5 4 7 9 8 11 10 9 10 10 12 14 13 14 14 14 14 14 13 13 11 9 8 8 7 7 6 6 10 12 11
Wind_Direction
84 242 299 32 37 12 345 280 283 173 124 254 250 264 232 201 209 212 208 208 209 210 184 195 204 212 275 231 278 301 314 342 340 346 352 352 359 360 2 3 355 357 353 351
208 277 93 104 111 274 263 282 276 161 137 242 272 271 250 215 219 218 215 214 212 204 204 204 209 220 229 243 242 261 288 316 330 330 345 334 337 348 347 348 354 356 352 352
284 87 144 188 165 253 261 280 275 315 192 236 288 249 200 210 222 219 225 221 214 211 211 208 207 219 217 226 228 246 274 293 316 329 327 328 317 295 345 356 351 349 351 351
53 127 195 187 240 251 289 78 283 266 278 334 317 360 193 192 216 214 213 211 211 208 214 210 205 216 220 219 224 241 260 281 299 314 319 332 332 333 350 342 344 349 351 353
84 169 189 232 69 210 35 7 284 266 266 280 159 260 115 207 237 213 210 207 208 205 207 206 207 212 213 209 223 247 255 259 280 295 319 330 333 335 336 341 339 353 353 351
75 71 1 32 87 77 134 205 230 233 241 229 100 322 163 191 177 152 196 201 201 201 202 208 202 202 212 204 223 238 258 281 279 291 308 319 324 330 329 337 340 347 348 341
159 145 110 212 198 141 216 264 266 220 218 3 123 260 301 183 178 186 188 200 197 197 200 202 199 205 209 210 220 228 236 261 259 282 280 292 314 313 310 331 337 332 336 344
263 202 198 56 321 349 188 304 314 296 315 345 161 231 137 173 155 203 216 219 193 196 200 203 202 204 206 209 213 218 225 241 245 275 286 288 296 304 307 319 321 321 327 329
212 168 94 22 350 314 129 222 37 279 194 273 234 234 199 213 228 205 214 200 198 199 199 204 203 207 211 212 217 223 226 243 250 264 275 279 281 300 303 306 313 318 313 322
141 228 73 90 258 71 292 68 218 179 294 279 227 274 258 206 224 205 208 206 202 200 201 203 205 207 208 213 215 220 224 237 242 256 269 285 298 299 297 296 304 315 314 315
177 249 112 185 203 212 155 203 186 315 283 287 308 266 163 185 198 202 209 206 202 198 202 202 204 206 209 211 214 216 217 226 234 233 250 265 276 285 284 285 298 309 314 315
149 286 224 155 85 331 301 272 250 234 180 247 310 273 151 171 191 210 206 204 204 204 201 202 200 203 206 209 210 213 215 222 229 235 242 249 261 268 273 281 292 299 301 307
174 182 251 178 176 187 240 201 181 84 135 219 224 263 109 209 225 222 221 205 204 202 200 201 201 203 207 209 209 211 215 222 228 231 237 244 252 263 275 287 295 300 303 304
191 194 232 264 334 110 200 197 209 213 221 224 233 274 243 224 227 222 219 216 205 202 202 202 204 206 207 209 207 207 213 217 223 230 237 244 257 270 281 292 298 304 307 305
230 240 217 260 240 210 251 218 192 207 231 236 276 274 276 278 241 229 222 209 204 204 204 207 207 206 207 206 207 211 213 213 220 231 236 242 254 268 280 288 296 302 305 310
197 216 180 266 211 222 255 246 232 229 249 261 274 278 278 275 254 250 223 209 209 208 207 207 209 209 207 204 202 205 212 215 217 229 241 246 253 267 278 290 300 305 305 308
184 185 184 268 140 243 261 243 217 205 221 225 244 257 271 249 241 237 230 218 217 213 208 205 206 208 208 204 199 201 203 207 215 228 235 242 251 262 271 285 288 293 300 309
180 185 186 268 236 255 300 99 197 217 243 218 260 271 275 276 287 278 240 227 223 215 210 209 204 205 208 202 197 195 197 204 212 222 228 233 241 252 261 271 278 288 291 297
279 183 181 238 231 302 294 203 177 191 292 229 251 281 293 262 286 272 229 221 227 217 212 209 203 200 195 199 195 193 194 201 207 217 222 225 231 242 251 257 264 275 280 292
144 258 242 167 227 252 57 144 186 154 289 356 280 319 307 221 258 23 11 255 234 220 205 199 195 193 192 192 192 195 201 204 210 213 214 215 220 233 244 252 258 267 270 282
169 201 219 220 249 278 254 142 152 242 5 29 0 347 187 224 261 321 327 330 264 217 204 195 191 194 195 183 185 200 205 214 213 210 211 214 218 229 243 252 255 259 268 278
176 170 190 185 209 260 124 102 199 9 20 354 343 300 254 254 274 277 292 289 237 203 197 195 195 198 192 184 186 197 210 211 210 207 209 215 220 225 237 242 253 255 263 273
232 219 204 204 211 46 206 264 188 3 308 311 298 286 261 271 270 279 262 256 245 211 196 198 202 196 191 191 197 202 206 200 200 205 213 219 224 230 233 241 249 256 260 269
227 190 234 234 245 252 237 244 249 213 261 277 261 277 276 275 289 286 282 257 234 215 207 191 198 202 198 197 202 211 200 194 198 204 210 217 226 230 233 238 246 251 259 269
277 155 207 245 267 271 267 238 257 249 230 270 282 264 273 271 283 280 280 272 245 221 207 202 201 205 207 195 202 202 198 194 202 205 210 216 222 225 237 237 247 247 254 262
186 209 221 257 293 296 293 216 263 266 273 268 288 298 242 231 258 270 268 258 244 226 208 208 212 211 206 198 200 197 196 196 201 206 208 212 215 221 229 243 253 228 249 263